Location: Unspecified
(41.1637°N, 24.2901°E)
Time: 21:51:15
(UTC+02:00)

ISS - Pass Details

Date: 12 September 2019
Orbit: 411 x 421 km, 51.6° (Epoch: 19 September)

Event Time Altitude Azimuth Distance (km) Brightness Sun altitude
Exits shadow 03:10:41 13° 33° (NNE) 1,296 -0.5 -30.0°
Drops below altitude 10° 03:11:39 10° 49° (NE) 1,491 -0.1 -29.9°
Sets 03:14:24 0° 73° (ENE) 2,355 1.1 -29.5°
